Regional Weather Roundup
Issued by NWS

Home | Current Version | Previous Version | Graphics & Text | Print | Product List | Glossary Off
Versions: 1 2 3 4 5 6 7 8 9 10 11 12 13 14 15 16 17 18 19 20 21 22 23 24 25 26 27 28 29 30 31 32 33 34 35 36 37 38 39 40 41 42 43 44 45 46 47 48 49 50

000
ASUS43 KLMK 230010
RWRKY
KENTUCKY REGIONAL WEATHER ROUNDUP
NATIONAL WEATHER SERVICE LOUISVILLE KY
700 PM EST MON JAN 22 2018

NOTE "FAIR" INDICATES FEW OR NO CLOUDS BELOW 12,000 FEET
WITH NO SIGNIFICANT WEATHER AND/OR OBSTRUCTIONS TO VISIBILITY.

KYZ001>023-026-027-061>063-070>075-230100-
WESTERN AND SOUTH CENTRAL KENTUCKY

CITY           SKY/WX    TMP DP  RH WIND       PRES   REMARKS
PADUCAH        FAIR      52  35  52 SW18G30   29.67R
HENDERSON      FAIR      54  38  54 SW20G28   29.61
OWENSBORO      FAIR      51  48  89 SW10      29.60R
HOPKINSVILLE   FAIR      59  40  50 SW20G31   29.65R
BOWLING GREEN  FAIR      60  54  80 S18       29.66R
GLASGOW        CLOUDY    61  53  75 S14G24    29.66S
$$

KYZ024-025-028>034-038-045-046-053-230100-
NORTH CENTRAL KENTUCKY

CITY           SKY/WX    TMP DP  RH WIND       PRES   REMARKS
LOUISVILLE/SDF MOCLDY    60  52  74 S15G26    29.60S
LOUISVILLE/LOU CLOUDY    59  53  80 S14G23    29.61F
FORT KNOX      MOCLDY    58  52  82 S14       29.60R
$$

KYZ035>037-039>044-047>052-055>060-089>105-230100-
NORTHEAST KENTUCKY

CITY           SKY/WX    TMP DP  RH WIND       PRES   REMARKS
LEXINGTON      CLOUDY    59  51  75 S24G39    29.66F
COVINGTON      CLOUDY    57  52  83 S20       29.62F
FRANKFORT      CLOUDY    58  49  72 S13G26    29.63F
$$

KYZ054-064>069-076>088-106>120-230100-
SOUTHEAST KENTUCKY

CITY           SKY/WX    TMP DP  RH WIND       PRES   REMARKS
JACKSON        FAIR      55  46  71 CALM      29.77F
LONDON         CLOUDY    58  51  78 S14G26    29.75F
SOMERSET       CLOUDY    55  50  82 S10G20    29.76F
MIDDLESBORO    CLOUDY    51  51 100 CALM      29.83F FOG
MONTICELLO     CLOUDY    60  53  77 S12G22    29.75F
$$




USA.gov is the U.S. government's official web portal to all federal, state and local government web resources and services.